CZN9A OMDB-EGLL

Flight info

Callsign CZN9A
Flight time 7h 50m
Altitude 36000
Route SENPA N571 ALPOB L768 ULADA Q143 MEDGO N697 HIL A788 HLF L604 WEJ L677 CVO L617 NOZ/N0487F380 L551 ANTAR UN133 KPC DCT FSK DCT DISOR DCT LONTA UL608 DOLEV DCT BOSNA DCT MARIL DCT OKSIG DCT KUSIB DCT GORPA DCT DOL DCT NIPEL DCT MODSA DCT BABEG DCT LIRSU DCT ARCKY DCT BUB L608 LOGAN
Aircraft A35K/H-SDE2E3GHIJ3J4J5LM1ORWXY/LB1D1

Departure

Time 2026-05-06 01:41
Airport Dubai International Airport (OMDB)

Arrival

Time 2026-05-06 09:31
Airport London Heathrow Airport (EGLL)
Time Latitude Longitude Altitude Speed Heading
2026-05-06 01:21 25.24807 55.36442 27 ft 0 kts 211°
2026-05-06 01:30 25.24826 55.36453 27 ft 4 kts 201°
2026-05-06 01:30 25.24852 55.36461 26 ft 4 kts 183°
2026-05-06 01:30 25.24878 55.36459 26 ft 4 kts 161°
2026-05-06 01:30 25.24902 55.36446 25 ft 4 kts 141°
2026-05-06 01:31 25.24921 55.36425 25 ft 4 kts 127°
2026-05-06 01:31 25.24935 55.36402 25 ft 2 kts 121°
2026-05-06 01:31 25.24936 55.36401 25 ft 0 kts 122°
2026-05-06 01:34 25.24933 55.36406 25 ft 2 kts 123°
2026-05-06 01:34 25.24923 55.36424 26 ft 4 kts 122°
2026-05-06 01:34 25.24907 55.36452 25 ft 5 kts 121°
2026-05-06 01:35 25.24887 55.36489 27 ft 6 kts 121°
2026-05-06 01:35 25.24861 55.36535 28 ft 8 kts 122°
2026-05-06 01:35 25.24832 55.36588 28 ft 9 kts 120°
2026-05-06 01:35 25.24806 55.36650 28 ft 9 kts 111°
2026-05-06 01:36 25.24785 55.36719 28 ft 10 kts 104°
2026-05-06 01:36 25.24768 55.36797 28 ft 11 kts 107°
2026-05-06 01:36 25.24737 55.36878 28 ft 11 kts 108°
2026-05-06 01:36 25.24761 55.36958 28 ft 11 kts 69°
2026-05-06 01:37 25.24748 55.37038 28 ft 11 kts 116°
2026-05-06 01:37 25.24706 55.37114 28 ft 12 kts 121°
2026-05-06 01:37 25.24660 55.37195 28 ft 13 kts 122°
2026-05-06 01:37 25.24612 55.37282 28 ft 14 kts 122°
2026-05-06 01:38 25.24560 55.37374 28 ft 15 kts 122°
2026-05-06 01:38 25.24504 55.37472 28 ft 15 kts 122°
2026-05-06 01:38 25.24447 55.37574 28 ft 16 kts 122°
2026-05-06 01:38 25.24387 55.37681 28 ft 17 kts 122°
2026-05-06 01:39 25.24339 55.37797 28 ft 16 kts 84°
2026-05-06 01:39 25.24413 55.37884 28 ft 16 kts 36°
2026-05-06 01:39 25.24506 55.37955 28 ft 17 kts 34°
2026-05-06 01:39 25.24604 55.38028 28 ft 17 kts 32°
2026-05-06 01:40 25.24708 55.38099 28 ft 18 kts 27°
2026-05-06 01:40 25.24776 55.38082 28 ft 7 kts 302°
2026-05-06 01:40 25.24823 55.37997 28 ft 29 kts 301°
2026-05-06 01:40 25.25045 55.37597 28 ft 92 kts 301°
2026-05-06 01:41 25.25477 55.36819 28 ft 145 kts 301°
2026-05-06 01:41 25.25944 55.35981 31 ft 181 kts 302°
2026-05-06 01:41 25.26608 55.34804 512 ft 183 kts 302°
2026-05-06 01:41 25.27262 55.33637 1174 ft 174 kts 302°
2026-05-06 01:42 25.27904 55.32471 1478 ft 184 kts 302°
2026-05-06 01:42 25.28529 55.31339 1618 ft 198 kts 302°
2026-05-06 01:42 25.29269 55.29955 1784 ft 216 kts 298°
2026-05-06 01:42 25.29698 55.28296 1931 ft 235 kts 277°
2026-05-06 01:43 25.29854 55.26448 2270 ft 245 kts 275°
2026-05-06 01:43 25.29980 55.24557 2800 ft 248 kts 275°
2026-05-06 01:43 25.30115 55.22680 3350 ft 249 kts 276°
2026-05-06 01:43 25.30262 55.20735 3913 ft 252 kts 276°
2026-05-06 01:44 25.30388 55.18831 4487 ft 253 kts 273°
2026-05-06 01:44 25.30328 55.16864 4897 ft 263 kts 267°
2026-05-06 01:44 25.30171 55.14791 5196 ft 277 kts 266°
2026-05-06 01:44 25.29997 55.12648 5680 ft 282 kts 266°
2026-05-06 01:45 25.29823 55.10476 6238 ft 285 kts 267°
2026-05-06 01:45 25.29651 55.08285 6774 ft 288 kts 266°
2026-05-06 01:45 25.29479 55.06076 7321 ft 290 kts 266°
2026-05-06 01:45 25.29306 55.03845 7912 ft 292 kts 266°
2026-05-06 01:46 25.29132 55.01596 8519 ft 295 kts 266°
2026-05-06 01:46 25.28955 54.99331 9095 ft 298 kts 265°
2026-05-06 01:46 25.28777 54.97033 9696 ft 301 kts 265°
2026-05-06 01:46 25.28596 54.94710 10202 ft 308 kts 265°
2026-05-06 01:47 25.28465 54.92290 10464 ft 323 kts 269°
2026-05-06 01:47 25.28411 54.89746 10695 ft 339 kts 269°
2026-05-06 01:47 25.28355 54.87090 10941 ft 353 kts 269°
2026-05-06 01:47 25.28287 54.84330 11173 ft 366 kts 269°
2026-05-06 01:48 25.28214 54.81470 11404 ft 378 kts 269°
2026-05-06 01:48 25.28130 54.78523 11623 ft 390 kts 268°
2026-05-06 01:48 25.28093 54.75488 11861 ft 399 kts 273°
2026-05-06 01:48 25.28553 54.72458 12268 ft 402 kts 285°
2026-05-06 01:49 25.29293 54.69475 12733 ft 404 kts 287°
2026-05-06 01:49 25.30023 54.66638 13180 ft 406 kts 286°
2026-05-06 01:49 25.30792 54.63632 13639 ft 408 kts 286°
2026-05-06 01:49 25.31563 54.60599 14010 ft 412 kts 286°
2026-05-06 01:50 25.32337 54.57542 14397 ft 415 kts 286°
2026-05-06 01:50 25.33114 54.54463 14837 ft 416 kts 286°
2026-05-06 01:50 25.33898 54.51386 15274 ft 418 kts 287°
2026-05-06 01:50 25.34720 54.48299 15679 ft 419 kts 287°
2026-05-06 01:51 25.35565 54.45204 16085 ft 421 kts 288°
2026-05-06 01:51 25.36418 54.42100 16540 ft 423 kts 288°
2026-05-06 01:51 25.37274 54.38978 16954 ft 425 kts 287°
2026-05-06 01:51 25.38127 54.35846 17371 ft 427 kts 287°
2026-05-06 01:52 25.38981 54.32694 17799 ft 429 kts 287°
2026-05-06 01:52 25.39834 54.29530 18198 ft 431 kts 287°
2026-05-06 01:52 25.40677 54.26394 18554 ft 432 kts 287°
2026-05-06 01:52 25.41502 54.23190 18930 ft 434 kts 285°
2026-05-06 01:53 25.42298 54.19964 19300 ft 435 kts 285°
2026-05-06 01:53 25.43086 54.16730 19663 ft 437 kts 285°
2026-05-06 01:53 25.43876 54.13481 20058 ft 438 kts 285°
2026-05-06 01:53 25.44674 54.10220 20470 ft 439 kts 285°
2026-05-06 01:54 25.45477 54.06948 20869 ft 441 kts 285°
2026-05-06 01:54 25.46270 54.03662 21282 ft 443 kts 284°
2026-05-06 01:54 25.47057 54.00366 21694 ft 445 kts 284°
2026-05-06 01:54 25.47848 53.97049 22081 ft 447 kts 284°
2026-05-06 01:55 25.48643 53.93720 22487 ft 449 kts 284°
2026-05-06 01:55 25.49446 53.90362 22908 ft 451 kts 284°
2026-05-06 01:55 25.50248 53.87009 23312 ft 453 kts 284°
2026-05-06 01:55 25.51060 53.83617 23662 ft 455 kts 284°
2026-05-06 01:56 25.51869 53.80235 24027 ft 456 kts 284°
2026-05-06 01:56 25.52682 53.76837 24393 ft 457 kts 284°
2026-05-06 01:56 25.53498 53.73428 24769 ft 459 kts 284°
2026-05-06 01:56 25.54319 53.70012 25142 ft 460 kts 283°
2026-05-06 01:57 25.55142 53.66576 25588 ft 461 kts 283°
2026-05-06 01:57 25.55960 53.63151 26074 ft 461 kts 283°
2026-05-06 01:57 25.56780 53.59711 26513 ft 462 kts 283°
2026-05-06 01:57 25.57599 53.56270 26923 ft 464 kts 283°
2026-05-06 01:58 25.58422 53.52813 27325 ft 465 kts 283°
2026-05-06 01:58 25.59248 53.49336 27729 ft 467 kts 283°
2026-05-06 01:58 25.60076 53.45850 28110 ft 469 kts 283°
2026-05-06 01:58 25.60898 53.42391 28481 ft 470 kts 283°
2026-05-06 01:59 25.61460 53.40021 28732 ft 471 kts 283°
2026-05-06 01:59 25.62560 53.35378 29410 ft 469 kts 282°
2026-05-06 01:59 25.63382 53.31898 29963 ft 466 kts 282°
2026-05-06 01:59 25.64197 53.28439 30392 ft 463 kts 282°
2026-05-06 02:00 25.65010 53.24984 30799 ft 462 kts 282°
2026-05-06 02:00 25.65818 53.21547 31154 ft 461 kts 282°
2026-05-06 02:00 25.66625 53.18110 31565 ft 459 kts 282°
2026-05-06 02:00 25.67164 53.15817 31918 ft 455 kts 282°
2026-05-06 02:01 25.67957 53.12437 32403 ft 451 kts 282°
2026-05-06 02:01 25.68746 53.09068 32757 ft 450 kts 282°
2026-05-06 02:01 25.69531 53.05713 33103 ft 449 kts 281°
2026-05-06 02:01 25.70421 53.02399 33428 ft 450 kts 287°
2026-05-06 02:02 25.71643 52.99196 33785 ft 451 kts 291°
2026-05-06 02:02 25.73010 52.96090 34038 ft 452 kts 292°
2026-05-06 02:02 25.74453 52.92997 34261 ft 452 kts 293°
2026-05-06 02:02 25.75929 52.89912 34489 ft 452 kts 294°
2026-05-06 02:03 25.77411 52.86834 34711 ft 452 kts 294°
2026-05-06 02:03 25.78887 52.83757 34943 ft 452 kts 293°
2026-05-06 02:03 25.80355 52.80677 35151 ft 451 kts 293°
2026-05-06 02:03 25.81816 52.77594 35361 ft 451 kts 293°
2026-05-06 02:04 25.83269 52.74514 35551 ft 451 kts 293°
2026-05-06 02:04 25.84723 52.71425 35715 ft 452 kts 293°
2026-05-06 02:04 25.87625 52.65242 35782 ft 458 kts 293°
2026-05-06 02:05 25.90585 52.58931 35782 ft 457 kts 292°
2026-05-06 02:05 25.93387 52.52653 35785 ft 456 kts 291°
2026-05-06 02:06 25.96144 52.46305 35784 ft 456 kts 291°
2026-05-06 02:06 25.98908 52.39973 35782 ft 455 kts 291°
2026-05-06 02:07 26.01714 52.33655 35782 ft 456 kts 291°
2026-05-06 02:07 26.04536 52.27349 35777 ft 456 kts 291°
2026-05-06 02:08 26.07354 52.21038 35782 ft 456 kts 291°
2026-05-06 02:08 26.10165 52.14726 35786 ft 455 kts 291°
2026-05-06 02:09 26.12970 52.08414 35783 ft 454 kts 291°
2026-05-06 02:09 26.15758 52.02127 35776 ft 454 kts 291°
2026-05-06 02:10 26.18564 51.95818 35784 ft 455 kts 291°
2026-05-06 02:10 26.21413 51.89503 35786 ft 455 kts 291°
2026-05-06 02:11 26.24202 51.83173 35800 ft 455 kts 290°
2026-05-06 02:11 26.26984 51.76861 35787 ft 454 kts 291°
2026-05-06 02:12 26.29789 51.70560 35796 ft 454 kts 291°
2026-05-06 02:12 26.32599 51.64258 35796 ft 454 kts 291°
2026-05-06 02:13 26.35412 51.57958 35803 ft 454 kts 291°
2026-05-06 02:13 26.38056 51.51630 35822 ft 450 kts 285°
2026-05-06 02:14 26.40218 51.45106 35812 ft 448 kts 284°
2026-05-06 02:14 26.42304 51.38565 35810 ft 447 kts 284°
2026-05-06 02:15 26.44382 51.32017 35811 ft 447 kts 284°
2026-05-06 02:15 26.46470 51.25471 35815 ft 448 kts 284°
2026-05-06 02:16 26.48561 51.18933 35815 ft 448 kts 284°
2026-05-06 02:16 26.50644 51.12383 35815 ft 446 kts 284°
2026-05-06 02:17 26.52712 51.05877 35817 ft 443 kts 284°
2026-05-06 02:17 26.54767 50.99397 35816 ft 443 kts 284°
2026-05-06 02:18 26.56820 50.92909 35814 ft 443 kts 284°
2026-05-06 02:18 26.58871 50.86404 35813 ft 443 kts 284°
2026-05-06 02:19 26.60880 50.79897 35819 ft 443 kts 284°
2026-05-06 02:19 26.62882 50.73397 35815 ft 441 kts 284°
2026-05-06 02:20 26.65845 50.63705 35811 ft 439 kts 283°
2026-05-06 02:21 26.67739 50.57263 35817 ft 439 kts 283°
2026-05-06 02:21 26.69644 50.50771 35818 ft 439 kts 283°
2026-05-06 02:22 26.71515 50.44226 35820 ft 438 kts 281°
2026-05-06 02:22 26.73159 50.37716 35825 ft 438 kts 280°
2026-05-06 02:23 26.74789 50.31157 35818 ft 438 kts 280°
2026-05-06 02:23 26.75733 50.24515 35820 ft 430 kts 269°
2026-05-06 02:24 26.75888 50.17827 35817 ft 430 kts 267°
2026-05-06 02:24 26.75939 50.11136 35813 ft 430 kts 267°
2026-05-06 02:25 26.75982 50.04440 35805 ft 431 kts 267°
2026-05-06 02:25 26.76035 49.97741 35807 ft 431 kts 267°
2026-05-06 02:26 26.76092 49.91030 35803 ft 431 kts 267°
2026-05-06 02:26 26.76143 49.84323 35797 ft 432 kts 267°
2026-05-06 02:27 26.76191 49.77657 35799 ft 430 kts 266°
2026-05-06 02:27 26.76236 49.70982 35797 ft 429 kts 266°
2026-05-06 02:28 26.76277 49.64302 35784 ft 429 kts 266°
2026-05-06 02:28 26.76317 49.57617 35795 ft 429 kts 266°
2026-05-06 02:29 26.76359 49.50943 35792 ft 429 kts 266°
2026-05-06 02:29 26.76392 49.44264 35793 ft 429 kts 266°
2026-05-06 02:30 26.76423 49.37590 35812 ft 429 kts 266°
2026-05-06 02:30 26.76451 49.30911 35807 ft 429 kts 266°
2026-05-06 02:31 26.76475 49.24240 35831 ft 429 kts 266°
2026-05-06 02:31 26.76496 49.17570 35818 ft 429 kts 266°
2026-05-06 02:32 26.76514 49.10894 35827 ft 428 kts 266°
2026-05-06 02:32 26.76530 49.04245 35831 ft 427 kts 266°
2026-05-06 02:33 26.76541 48.97603 35832 ft 427 kts 266°
2026-05-06 02:33 26.76545 48.95402 35830 ft 427 kts 266°
2026-05-06 02:34 26.76555 48.84334 35836 ft 427 kts 266°
2026-05-06 02:34 26.76558 48.77695 35843 ft 427 kts 266°
2026-05-06 02:35 26.76558 48.71093 35850 ft 427 kts 266°
2026-05-06 02:35 26.76483 48.64465 35856 ft 426 kts 264°
2026-05-06 02:36 26.76273 48.57857 35859 ft 426 kts 264°
2026-05-06 02:36 26.76063 48.51229 35863 ft 426 kts 264°
2026-05-06 02:37 26.75875 48.44606 35868 ft 426 kts 264°
2026-05-06 02:37 26.75694 48.37990 35871 ft 426 kts 264°
2026-05-06 02:38 26.75511 48.31366 35874 ft 426 kts 264°
2026-05-06 02:38 26.75327 48.24747 35880 ft 426 kts 264°
2026-05-06 02:39 26.75139 48.18123 35885 ft 427 kts 264°
2026-05-06 02:39 26.74946 48.11487 35895 ft 427 kts 264°
2026-05-06 02:40 26.74751 48.04841 35900 ft 427 kts 264°
2026-05-06 02:40 26.74554 47.98195 35898 ft 428 kts 264°
2026-05-06 02:41 26.74352 47.91547 35903 ft 428 kts 264°
2026-05-06 02:41 26.74428 47.84854 35907 ft 431 kts 268°
2026-05-06 02:42 26.74746 47.78166 35914 ft 430 kts 268°
2026-05-06 02:42 26.75092 47.71510 35915 ft 428 kts 268°
2026-05-06 02:43 26.75430 47.64861 35912 ft 428 kts 268°
2026-05-06 02:43 26.75758 47.58214 35921 ft 428 kts 268°
2026-05-06 02:44 26.76083 47.51569 35922 ft 427 kts 268°
2026-05-06 02:44 26.76401 47.44979 35925 ft 427 kts 268°
2026-05-06 02:45 26.76759 47.38304 35926 ft 429 kts 271°
2026-05-06 02:45 26.77650 47.31718 35928 ft 432 kts 274°
2026-05-06 02:46 26.78669 47.25109 35931 ft 430 kts 274°
2026-05-06 02:46 26.79699 47.18518 35935 ft 429 kts 274°
2026-05-06 02:47 26.80716 47.11928 35935 ft 430 kts 274°
2026-05-06 02:47 26.81722 47.05346 35938 ft 431 kts 274°
2026-05-06 02:48 26.82729 46.98732 35938 ft 430 kts 274°
2026-05-06 02:48 26.83732 46.92129 35939 ft 431 kts 274°
2026-05-06 02:49 26.84572 46.86585 35948 ft 431 kts 273°
2026-05-06 02:49 26.85730 46.78919 35942 ft 429 kts 273°
2026-05-06 02:50 26.86722 46.72320 35945 ft 429 kts 273°
2026-05-06 02:50 26.87544 46.66835 35947 ft 429 kts 273°
2026-05-06 02:51 26.88528 46.60248 35943 ft 429 kts 273°
2026-05-06 02:51 26.89512 46.53647 35951 ft 429 kts 273°
2026-05-06 02:52 26.90491 46.47059 35955 ft 429 kts 273°
2026-05-06 02:52 26.91469 46.40461 35944 ft 428 kts 273°
2026-05-06 02:53 26.92445 46.33878 35953 ft 427 kts 273°
2026-05-06 02:53 26.93416 46.27316 35963 ft 427 kts 273°
2026-05-06 02:54 26.94384 46.20747 35947 ft 427 kts 273°
2026-05-06 02:54 26.95348 46.14182 35954 ft 427 kts 273°
2026-05-06 02:55 26.96312 46.07605 35949 ft 427 kts 273°
2026-05-06 02:55 26.97271 46.01039 35953 ft 426 kts 273°
2026-05-06 02:56 26.98219 45.94536 35955 ft 425 kts 272°
2026-05-06 02:56 26.99166 45.87997 35952 ft 425 kts 272°
2026-05-06 02:57 27.00112 45.81450 35956 ft 425 kts 272°
2026-05-06 02:57 27.01055 45.74907 35960 ft 425 kts 272°
2026-05-06 02:58 27.01996 45.68348 35960 ft 426 kts 272°
2026-05-06 02:58 27.02934 45.61796 35968 ft 425 kts 272°
2026-05-06 02:59 27.03868 45.55265 35961 ft 424 kts 272°
2026-05-06 02:59 27.04801 45.48726 35966 ft 424 kts 272°
2026-05-06 03:00 27.05718 45.42185 35958 ft 424 kts 272°
2026-05-06 03:00 27.06463 45.35648 35967 ft 423 kts 270°
2026-05-06 03:01 27.07148 45.29095 35971 ft 423 kts 270°
2026-05-06 03:01 27.07853 45.22543 35982 ft 423 kts 270°
2026-05-06 03:02 27.08575 45.15995 35966 ft 422 kts 270°
2026-05-06 03:02 27.09297 45.09469 35968 ft 422 kts 270°
2026-05-06 03:03 27.10017 45.02927 35968 ft 422 kts 270°
2026-05-06 03:03 27.10728 44.96435 35968 ft 422 kts 270°
2026-05-06 03:04 27.11439 44.89904 35969 ft 422 kts 270°
2026-05-06 03:04 27.12147 44.83370 35971 ft 422 kts 270°
2026-05-06 03:05 27.12853 44.76837 35973 ft 422 kts 270°
2026-05-06 03:05 27.13558 44.70304 35971 ft 422 kts 270°
2026-05-06 03:06 27.14260 44.63766 35969 ft 422 kts 270°
2026-05-06 03:06 27.14956 44.57231 35957 ft 421 kts 270°
2026-05-06 03:07 27.15649 44.50692 35972 ft 422 kts 270°
2026-05-06 03:07 27.16341 44.44151 35975 ft 422 kts 270°
2026-05-06 03:08 27.17031 44.37607 35979 ft 421 kts 270°
2026-05-06 03:08 27.17716 44.31079 35979 ft 421 kts 270°
2026-05-06 03:09 27.18388 44.24550 35980 ft 420 kts 270°
2026-05-06 03:09 27.19056 44.18039 35982 ft 420 kts 270°
2026-05-06 03:10 27.19723 44.11528 35984 ft 419 kts 270°
2026-05-06 03:10 27.20387 44.05018 35988 ft 419 kts 270°
2026-05-06 03:11 27.21049 43.98510 35990 ft 419 kts 270°
2026-05-06 03:11 27.21707 43.92008 35991 ft 419 kts 270°
2026-05-06 03:12 27.22360 43.85515 35991 ft 418 kts 270°
2026-05-06 03:12 27.23010 43.79021 35993 ft 419 kts 270°
2026-05-06 03:13 27.23658 43.72516 35997 ft 419 kts 270°
2026-05-06 03:13 27.24310 43.66008 36000 ft 419 kts 270°
2026-05-06 03:14 27.24953 43.59509 36004 ft 419 kts 270°
2026-05-06 03:14 27.25592 43.53007 36004 ft 418 kts 270°
2026-05-06 03:15 27.26229 43.46500 36006 ft 418 kts 270°
2026-05-06 03:15 27.26863 43.39999 36012 ft 418 kts 270°
2026-05-06 03:16 27.27489 43.33551 36011 ft 418 kts 270°
2026-05-06 03:16 27.28118 43.27051 36012 ft 418 kts 270°
2026-05-06 03:17 27.28743 43.20557 36011 ft 418 kts 270°
2026-05-06 03:17 27.29365 43.14061 36015 ft 418 kts 270°
2026-05-06 03:18 27.29984 43.07556 36004 ft 418 kts 270°
2026-05-06 03:18 27.30601 43.01040 36042 ft 419 kts 268°
2026-05-06 03:19 27.31094 42.94534 36030 ft 418 kts 267°
2026-05-06 03:19 27.31605 42.88026 36015 ft 419 kts 268°
2026-05-06 03:20 27.31975 42.78332 36039 ft 414 kts 267°
2026-05-06 03:20 27.32755 42.71809 36035 ft 424 kts 271°
2026-05-06 03:21 27.33625 42.65268 36034 ft 421 kts 269°
2026-05-06 03:21 27.34314 42.58762 36037 ft 419 kts 268°
2026-05-06 03:22 27.34911 42.52232 36034 ft 419 kts 268°
2026-05-06 03:22 27.35490 42.45711 36037 ft 419 kts 268°
2026-05-06 03:23 27.36074 42.39177 36052 ft 420 kts 268°
2026-05-06 03:23 27.36660 42.32649 36049 ft 420 kts 268°
2026-05-06 03:24 27.37243 42.26115 36044 ft 420 kts 268°
2026-05-06 03:24 27.37820 42.19627 36062 ft 419 kts 268°
2026-05-06 03:25 27.38400 42.13053 36061 ft 420 kts 268°
2026-05-06 03:25 27.38971 42.06557 36053 ft 420 kts 268°
2026-05-06 03:26 27.39542 42.00021 36062 ft 420 kts 268°
2026-05-06 03:26 27.40111 41.93472 36059 ft 421 kts 268°
2026-05-06 03:27 27.40677 41.86914 36062 ft 421 kts 268°
2026-05-06 03:27 27.41241 41.80366 36061 ft 420 kts 268°
2026-05-06 03:28 27.41774 41.73813 36069 ft 418 kts 265°
2026-05-06 03:28 27.41373 41.67395 36065 ft 407 kts 253°
2026-05-06 03:29 27.39562 41.61425 36033 ft 405 kts 244°
2026-05-06 03:29 27.37251 41.55623 36090 ft 407 kts 243°
2026-05-06 03:30 27.34893 41.49841 36058 ft 407 kts 243°
2026-05-06 03:30 27.32551 41.44045 36058 ft 407 kts 243°
2026-05-06 03:31 27.30224 41.38252 36052 ft 407 kts 243°
2026-05-06 03:31 27.27899 41.32459 36034 ft 407 kts 243°
2026-05-06 03:32 27.25571 41.26668 36048 ft 407 kts 243°
2026-05-06 03:32 27.23233 41.20867 36042 ft 407 kts 243°
2026-05-06 03:33 27.20900 41.15088 36037 ft 407 kts 243°
2026-05-06 03:33 27.18561 41.09299 36041 ft 407 kts 243°
2026-05-06 03:34 27.16222 41.03518 36034 ft 406 kts 243°
2026-05-06 03:34 27.13878 40.97741 36030 ft 407 kts 243°
2026-05-06 03:35 27.11544 40.91994 36030 ft 407 kts 243°
2026-05-06 03:35 27.09186 40.86181 36030 ft 407 kts 243°
2026-05-06 03:36 27.07237 40.81387 36029 ft 406 kts 243°
2026-05-06 03:36 27.04503 40.74676 36034 ft 406 kts 243°
2026-05-06 03:37 27.02152 40.68916 36023 ft 407 kts 243°
2026-05-06 03:37 27.00181 40.64093 36028 ft 406 kts 243°
2026-05-06 03:38 26.97441 40.57397 36027 ft 406 kts 243°
2026-05-06 03:38 26.95468 40.52582 36028 ft 406 kts 243°
2026-05-06 03:39 26.93103 40.46818 36047 ft 407 kts 243°
2026-05-06 03:39 26.90740 40.41067 36013 ft 406 kts 243°
2026-05-06 03:40 26.88391 40.35359 36025 ft 406 kts 243°
2026-05-06 03:40 26.86024 40.29612 36026 ft 406 kts 243°
2026-05-06 03:41 26.83656 40.23873 36033 ft 406 kts 243°
2026-05-06 03:41 26.81281 40.18127 36024 ft 407 kts 243°
2026-05-06 03:42 26.78904 40.12382 36024 ft 407 kts 243°
2026-05-06 03:42 26.76525 40.06637 36022 ft 407 kts 243°
2026-05-06 03:43 26.74146 40.00903 36035 ft 407 kts 243°
2026-05-06 03:43 26.71753 39.95144 36027 ft 408 kts 243°
2026-05-06 03:44 26.69356 39.89386 36026 ft 408 kts 243°
2026-05-06 03:44 26.66962 39.83640 36026 ft 408 kts 243°
2026-05-06 03:45 26.64559 39.77880 36019 ft 409 kts 243°
2026-05-06 03:45 26.62153 39.72120 36026 ft 410 kts 243°
2026-05-06 03:46 26.59740 39.66354 36025 ft 409 kts 243°
2026-05-06 03:46 26.57329 39.60598 36026 ft 409 kts 243°
2026-05-06 03:47 26.54910 39.54832 36031 ft 409 kts 243°
2026-05-06 03:47 26.52493 39.49079 36026 ft 409 kts 243°
2026-05-06 03:48 26.50068 39.43315 36026 ft 410 kts 242°
2026-05-06 03:48 26.47639 39.37550 36026 ft 410 kts 242°
2026-05-06 03:49 26.45211 39.31794 36028 ft 410 kts 242°
2026-05-06 03:49 26.43293 39.25780 36021 ft 415 kts 253°
2026-05-06 03:50 26.42519 39.19383 36029 ft 417 kts 258°
2026-05-06 03:50 26.41992 39.12945 36026 ft 417 kts 259°
2026-05-06 03:51 26.41485 39.06504 36013 ft 417 kts 259°
2026-05-06 03:51 26.40958 39.00062 36026 ft 417 kts 259°
2026-05-06 03:52 26.40418 38.93610 36028 ft 417 kts 259°
2026-05-06 03:52 26.39883 38.87283 36035 ft 417 kts 259°
2026-05-06 03:53 26.39328 38.80744 36028 ft 418 kts 259°
2026-05-06 03:53 26.38779 38.74300 36025 ft 418 kts 259°
2026-05-06 03:54 26.38225 38.67849 36022 ft 418 kts 258°
2026-05-06 03:54 26.37669 38.61399 36022 ft 418 kts 258°
2026-05-06 03:55 26.37109 38.54943 36018 ft 418 kts 258°
2026-05-06 03:55 26.36551 38.48529 36006 ft 418 kts 258°
2026-05-06 03:56 26.35986 38.42073 36009 ft 418 kts 258°
2026-05-06 03:56 26.35418 38.35619 36000 ft 418 kts 258°
2026-05-06 03:57 26.34848 38.29169 35999 ft 418 kts 258°
2026-05-06 03:57 26.34276 38.22725 35997 ft 418 kts 258°
2026-05-06 03:58 26.33699 38.16276 36003 ft 418 kts 258°
2026-05-06 03:58 26.33116 38.09823 35995 ft 419 kts 258°
2026-05-06 03:59 26.32532 38.03363 35992 ft 419 kts 258°
2026-05-06 03:59 26.31944 37.96909 36000 ft 419 kts 258°
2026-05-06 04:00 26.31354 37.90455 36002 ft 418 kts 258°
2026-05-06 04:00 26.30763 37.84018 36000 ft 418 kts 258°
2026-05-06 04:01 26.30168 37.77581 36003 ft 419 kts 258°
2026-05-06 04:01 26.29569 37.71120 36037 ft 419 kts 258°
2026-05-06 04:02 26.28970 37.64669 36008 ft 419 kts 258°
2026-05-06 04:02 26.28372 37.58273 36006 ft 418 kts 258°
2026-05-06 04:03 26.27768 37.51829 35999 ft 417 kts 258°
2026-05-06 04:03 26.27158 37.45396 36003 ft 418 kts 258°
2026-05-06 04:04 26.26548 37.38978 35984 ft 417 kts 258°
2026-05-06 04:04 26.25939 37.32562 35971 ft 416 kts 258°
2026-05-06 04:05 26.25327 37.26159 35957 ft 416 kts 258°
2026-05-06 04:05 26.24712 37.19747 35977 ft 417 kts 258°
2026-05-06 04:06 26.24093 37.13338 35950 ft 415 kts 258°
2026-05-06 04:06 26.23473 37.06949 35953 ft 415 kts 258°
2026-05-06 04:07 26.22848 37.00563 35951 ft 416 kts 258°
2026-05-06 04:07 26.22220 36.94156 35936 ft 415 kts 258°
2026-05-06 04:08 26.21591 36.87764 35945 ft 416 kts 258°
2026-05-06 04:08 26.20958 36.81361 35940 ft 416 kts 258°
2026-05-06 04:09 26.20322 36.74966 35943 ft 416 kts 258°
2026-05-06 04:09 26.19683 36.68569 35936 ft 417 kts 258°
2026-05-06 04:10 26.19039 36.62153 35929 ft 417 kts 258°
2026-05-06 04:10 26.18731 36.55698 35937 ft 423 kts 266°
2026-05-06 04:11 26.19871 36.49194 35944 ft 437 kts 281°
2026-05-06 04:11 26.22778 36.43095 35938 ft 458 kts 297°
2026-05-06 04:12 26.27085 36.37740 35941 ft 467 kts 303°
2026-05-06 04:12 26.31628 36.32573 35939 ft 467 kts 303°
2026-05-06 04:13 26.36174 36.27407 35935 ft 467 kts 303°
2026-05-06 04:13 26.40666 36.22241 35940 ft 466 kts 303°
2026-05-06 04:14 26.45194 36.17003 35935 ft 466 kts 303°
2026-05-06 04:14 26.49668 36.11818 35937 ft 466 kts 303°
2026-05-06 04:15 26.54192 36.06570 35938 ft 466 kts 303°
2026-05-06 04:15 26.58657 36.01384 35942 ft 466 kts 303°
2026-05-06 04:16 26.63183 35.96123 35941 ft 466 kts 303°
2026-05-06 04:16 26.67668 35.90902 35955 ft 466 kts 303°
2026-05-06 04:17 26.72126 35.85708 35945 ft 466 kts 303°
2026-05-06 04:17 26.76620 35.80465 35945 ft 466 kts 303°
2026-05-06 04:18 26.81099 35.75235 35964 ft 466 kts 303°
2026-05-06 04:18 26.85591 35.69979 35944 ft 467 kts 303°
2026-05-06 04:19 26.90071 35.64734 35943 ft 467 kts 303°
2026-05-06 04:19 26.94557 35.59477 35963 ft 467 kts 303°
2026-05-06 04:20 26.99043 35.54212 35972 ft 466 kts 303°
2026-05-06 04:20 27.03525 35.48945 35993 ft 467 kts 304°
2026-05-06 04:21 27.08006 35.43673 35965 ft 466 kts 304°
2026-05-06 04:21 27.12484 35.38400 35965 ft 466 kts 304°
2026-05-06 04:22 27.16953 35.33128 35973 ft 466 kts 304°
2026-05-06 04:23 27.22903 35.26100 35974 ft 466 kts 304°
2026-05-06 04:23 27.27365 35.20821 35979 ft 466 kts 304°
2026-05-06 04:24 27.32398 35.14859 35977 ft 466 kts 304°
2026-05-06 04:24 27.36094 35.10477 35977 ft 466 kts 304°
2026-05-06 04:25 27.40546 35.05191 36020 ft 466 kts 304°
2026-05-06 04:25 27.44983 34.99916 35994 ft 465 kts 304°
2026-05-06 04:26 27.49427 34.94621 35997 ft 465 kts 304°
2026-05-06 04:26 27.53929 34.89394 35996 ft 469 kts 307°
2026-05-06 04:27 27.58737 34.84392 35996 ft 471 kts 308°
2026-05-06 04:27 27.63572 34.79419 35980 ft 470 kts 308°
2026-05-06 04:28 27.68363 34.74398 35998 ft 469 kts 308°
2026-05-06 04:28 27.73117 34.69360 35996 ft 469 kts 308°
2026-05-06 04:29 27.77853 34.64326 36015 ft 470 kts 308°
2026-05-06 04:29 27.82617 34.59262 36007 ft 470 kts 308°
2026-05-06 04:30 27.87338 34.54239 36013 ft 470 kts 308°
2026-05-06 04:30 27.92123 34.49143 36020 ft 470 kts 308°
2026-05-06 04:31 27.96851 34.44102 36026 ft 469 kts 308°
2026-05-06 04:31 28.01263 34.38876 36018 ft 461 kts 302°
2026-05-06 04:32 28.05340 34.33317 36021 ft 462 kts 301°
2026-05-06 04:32 28.09380 34.27703 36019 ft 462 kts 301°
2026-05-06 04:33 28.13429 34.22071 36049 ft 462 kts 301°
2026-05-06 04:33 28.17460 34.16470 36017 ft 460 kts 302°
2026-05-06 04:34 28.21472 34.10896 36029 ft 460 kts 302°
2026-05-06 04:34 28.25515 34.05273 36032 ft 460 kts 302°
2026-05-06 04:35 28.29534 33.99675 36026 ft 460 kts 302°
2026-05-06 04:35 28.33554 33.94068 36034 ft 460 kts 302°
2026-05-06 04:36 28.37559 33.88472 36030 ft 461 kts 302°
2026-05-06 04:36 28.41590 33.82834 36044 ft 461 kts 302°
2026-05-06 04:37 28.45613 33.77200 36037 ft 461 kts 302°
2026-05-06 04:37 28.49632 33.71566 36035 ft 461 kts 302°
2026-05-06 04:38 28.53642 33.65936 36039 ft 461 kts 302°
2026-05-06 04:38 28.57697 33.60247 36050 ft 461 kts 302°
2026-05-06 04:39 28.61649 33.54702 36047 ft 461 kts 302°
2026-05-06 04:39 28.65616 33.49127 36048 ft 461 kts 302°
2026-05-06 04:40 28.69634 33.43454 36050 ft 461 kts 302°
2026-05-06 04:40 28.73619 33.37821 36060 ft 461 kts 302°
2026-05-06 04:41 28.77633 33.32142 36064 ft 461 kts 302°
2026-05-06 04:41 28.81635 33.26472 36071 ft 461 kts 302°
2026-05-06 04:42 28.85615 33.20826 36067 ft 461 kts 302°
2026-05-06 04:42 28.89590 33.15179 36091 ft 460 kts 302°
2026-05-06 04:43 28.93595 33.09484 36081 ft 459 kts 302°
2026-05-06 04:43 28.97574 33.03817 36082 ft 458 kts 302°
2026-05-06 04:44 29.01514 32.98196 36087 ft 458 kts 302°
2026-05-06 04:44 29.05515 32.92481 36089 ft 458 kts 302°
2026-05-06 04:45 29.09446 32.86858 36094 ft 458 kts 302°
2026-05-06 04:45 29.13393 32.81208 36095 ft 457 kts 302°
2026-05-06 04:46 29.17331 32.75559 36095 ft 456 kts 302°
2026-05-06 04:46 29.21277 32.69891 36096 ft 456 kts 302°
2026-05-06 04:47 29.25202 32.64247 36097 ft 456 kts 302°
2026-05-06 04:47 29.29126 32.58596 36093 ft 456 kts 302°
2026-05-06 04:48 29.33031 32.52925 36114 ft 455 kts 301°
2026-05-06 04:48 29.36929 32.47230 36100 ft 455 kts 301°
2026-05-06 04:49 29.40772 32.41614 36098 ft 454 kts 301°
2026-05-06 04:49 29.44698 32.35875 36106 ft 454 kts 301°
2026-05-06 04:50 29.48578 32.30197 36103 ft 454 kts 302°
2026-05-06 04:50 29.52452 32.24523 36106 ft 453 kts 302°
2026-05-06 04:51 29.56248 32.18952 36107 ft 453 kts 302°
2026-05-06 04:51 29.60166 32.13196 36108 ft 453 kts 302°
2026-05-06 04:52 29.64062 32.07464 36105 ft 453 kts 302°
2026-05-06 04:52 29.67934 32.01758 36103 ft 453 kts 302°
2026-05-06 04:53 29.71683 31.96227 36104 ft 453 kts 302°
2026-05-06 04:53 29.75603 31.90435 36126 ft 453 kts 302°
2026-05-06 04:54 29.79418 31.84783 36099 ft 453 kts 301°
2026-05-06 04:54 29.83140 31.79013 36106 ft 452 kts 300°
2026-05-06 04:55 29.86820 31.73198 36097 ft 451 kts 300°
2026-05-06 04:55 29.90516 31.67391 36101 ft 451 kts 300°
2026-05-06 04:56 29.94216 31.61626 36096 ft 451 kts 301°
2026-05-06 04:56 29.97946 31.55873 36099 ft 451 kts 301°
2026-05-06 04:57 30.01697 31.50080 36103 ft 451 kts 301°
2026-05-06 04:57 30.05419 31.44313 36104 ft 452 kts 301°
2026-05-06 04:58 30.09242 31.38668 36101 ft 456 kts 307°
2026-05-06 04:58 30.13756 31.33599 36101 ft 458 kts 310°
2026-05-06 04:59 30.18362 31.28646 36103 ft 458 kts 310°
2026-05-06 04:59 30.23023 31.23658 36104 ft 458 kts 311°
2026-05-06 05:00 30.27679 31.18657 36102 ft 458 kts 310°
2026-05-06 05:00 30.32310 31.13665 36090 ft 458 kts 310°
2026-05-06 05:01 30.36923 31.08686 36090 ft 458 kts 310°
2026-05-06 05:01 30.41546 31.03690 36097 ft 458 kts 310°
2026-05-06 05:02 30.46188 30.98667 36093 ft 458 kts 310°
2026-05-06 05:02 30.50807 30.93661 36102 ft 457 kts 311°
2026-05-06 05:03 30.55404 30.88675 36093 ft 455 kts 311°
2026-05-06 05:03 30.60010 30.83670 36097 ft 455 kts 311°
2026-05-06 05:04 30.64587 30.78690 36097 ft 455 kts 310°
2026-05-06 05:04 30.69144 30.73725 36097 ft 455 kts 310°
2026-05-06 05:05 30.73708 30.68745 36098 ft 455 kts 310°
2026-05-06 05:05 30.78312 30.63716 36097 ft 455 kts 310°
2026-05-06 05:06 30.82892 30.58705 36096 ft 455 kts 310°
2026-05-06 05:06 30.87480 30.53678 36097 ft 454 kts 310°
2026-05-06 05:07 30.92060 30.48653 36095 ft 454 kts 310°
2026-05-06 05:07 30.96634 30.43628 36097 ft 454 kts 310°
2026-05-06 05:08 31.01214 30.38589 36100 ft 454 kts 311°
2026-05-06 05:08 31.05704 30.33560 36105 ft 451 kts 307°
2026-05-06 05:09 31.09242 30.27834 36099 ft 442 kts 293°
2026-05-06 05:09 31.11449 30.21251 36095 ft 440 kts 285°
2026-05-06 05:10 31.13295 30.14467 36094 ft 442 kts 284°
2026-05-06 05:10 31.15121 30.07608 36100 ft 442 kts 284°
2026-05-06 05:11 31.17216 30.00937 36093 ft 445 kts 293°
2026-05-06 05:11 31.20719 29.94995 36075 ft 453 kts 308°
2026-05-06 05:12 31.25704 29.90426 36097 ft 463 kts 323°
2026-05-06 05:12 31.31317 29.86806 36081 ft 463 kts 326°
2026-05-06 05:13 31.36074 29.83884 36083 ft 463 kts 326°
2026-05-06 05:13 31.41721 29.80398 36091 ft 462 kts 326°
2026-05-06 05:14 31.47367 29.76873 36096 ft 461 kts 325°
2026-05-06 05:14 31.53011 29.73328 36102 ft 461 kts 325°
2026-05-06 05:15 31.58642 29.69783 36102 ft 460 kts 326°
2026-05-06 05:15 31.64277 29.66233 36106 ft 459 kts 325°
2026-05-06 05:16 31.69888 29.62693 36113 ft 459 kts 325°
2026-05-06 05:16 31.75519 29.59136 36111 ft 459 kts 325°
2026-05-06 05:17 31.81134 29.55584 36118 ft 459 kts 325°
2026-05-06 05:17 31.86746 29.52028 36115 ft 457 kts 326°
2026-05-06 05:18 31.92318 29.48495 36114 ft 455 kts 326°
2026-05-06 05:18 31.97884 29.44959 36116 ft 455 kts 326°
2026-05-06 05:19 32.03459 29.41413 36115 ft 455 kts 326°
2026-05-06 05:19 32.09031 29.37864 36116 ft 455 kts 326°
2026-05-06 05:20 32.14587 29.34319 36114 ft 455 kts 326°
2026-05-06 05:20 32.20144 29.30769 36116 ft 455 kts 326°
2026-05-06 05:21 32.25632 29.27259 36112 ft 455 kts 326°
2026-05-06 05:21 32.31154 29.23716 36114 ft 454 kts 326°
2026-05-06 05:22 32.36692 29.20159 36109 ft 454 kts 326°
2026-05-06 05:22 32.42217 29.16606 36116 ft 453 kts 326°
2026-05-06 05:23 32.47727 29.13058 36114 ft 453 kts 326°
2026-05-06 05:23 32.55996 29.07724 36109 ft 453 kts 326°
2026-05-06 05:24 32.61505 29.04164 36109 ft 453 kts 326°
2026-05-06 05:24 32.67025 29.00592 36123 ft 453 kts 326°
2026-05-06 05:25 32.72551 28.97012 36109 ft 452 kts 326°
2026-05-06 05:25 32.78064 28.93434 36108 ft 451 kts 326°
2026-05-06 05:26 32.83557 28.89864 36108 ft 451 kts 326°
2026-05-06 05:26 32.89053 28.86288 36108 ft 451 kts 326°
2026-05-06 05:27 32.94532 28.82717 36105 ft 451 kts 326°
2026-05-06 05:27 32.99989 28.79155 36108 ft 450 kts 326°
2026-05-06 05:28 33.05464 28.75577 36105 ft 450 kts 326°
2026-05-06 05:28 33.10932 28.71999 36105 ft 450 kts 326°
2026-05-06 05:29 33.16397 28.68416 36103 ft 450 kts 326°
2026-05-06 05:29 33.21855 28.64834 36102 ft 450 kts 326°
2026-05-06 05:30 33.27328 28.61237 36109 ft 449 kts 326°
2026-05-06 05:30 33.32778 28.57650 36106 ft 449 kts 325°
2026-05-06 05:31 33.38168 28.54096 36104 ft 449 kts 325°
2026-05-06 05:31 33.43634 28.50487 36104 ft 449 kts 325°
2026-05-06 05:32 33.49084 28.46884 36101 ft 449 kts 325°
2026-05-06 05:32 33.54527 28.43280 36094 ft 448 kts 325°
2026-05-06 05:33 33.59958 28.39680 36093 ft 448 kts 325°
2026-05-06 05:33 33.65356 28.36095 36116 ft 446 kts 325°
2026-05-06 05:34 33.70779 28.32489 36094 ft 449 kts 325°
2026-05-06 05:34 33.76215 28.28868 36092 ft 447 kts 325°
2026-05-06 05:35 33.81638 28.25252 36101 ft 447 kts 325°
2026-05-06 05:35 33.87025 28.21622 36097 ft 446 kts 325°
2026-05-06 05:36 33.92425 28.17964 36100 ft 446 kts 325°
2026-05-06 05:36 33.97823 28.14308 36099 ft 446 kts 325°
2026-05-06 05:37 34.03208 28.10658 36092 ft 446 kts 325°
2026-05-06 05:37 34.08608 28.06994 36112 ft 446 kts 325°
2026-05-06 05:38 34.13997 28.03333 36090 ft 445 kts 325°
2026-05-06 05:38 34.19381 27.99669 36094 ft 445 kts 325°
2026-05-06 05:39 34.24766 27.96000 36093 ft 445 kts 325°
2026-05-06 05:39 34.30109 27.92353 36092 ft 445 kts 325°
2026-05-06 05:40 34.35486 27.88676 36109 ft 445 kts 325°
2026-05-06 05:40 34.40857 27.84999 36093 ft 445 kts 325°
2026-05-06 05:41 34.46197 27.81339 36084 ft 445 kts 325°
2026-05-06 05:41 34.51588 27.77638 36084 ft 445 kts 325°
2026-05-06 05:42 34.56929 27.73964 36098 ft 445 kts 325°
2026-05-06 05:42 34.62289 27.70258 36092 ft 445 kts 325°
2026-05-06 05:43 34.67650 27.66542 36088 ft 445 kts 326°
2026-05-06 05:43 34.73008 27.62826 36086 ft 445 kts 326°
2026-05-06 05:44 34.78371 27.59103 36088 ft 445 kts 326°
2026-05-06 05:44 34.83717 27.55385 36089 ft 444 kts 325°
2026-05-06 05:45 34.89076 27.51654 36086 ft 445 kts 325°
2026-05-06 05:45 34.94436 27.47913 36084 ft 445 kts 326°
2026-05-06 05:46 34.99802 27.44165 36086 ft 445 kts 326°
2026-05-06 05:46 35.05152 27.40424 36086 ft 445 kts 326°
2026-05-06 05:47 35.10522 27.36661 36083 ft 445 kts 326°
2026-05-06 05:47 35.15874 27.32905 36083 ft 445 kts 326°
2026-05-06 05:48 35.21215 27.29152 36086 ft 445 kts 326°
2026-05-06 05:48 35.26557 27.25392 36083 ft 445 kts 326°
2026-05-06 05:49 35.31917 27.21613 36086 ft 445 kts 326°
2026-05-06 05:49 35.37273 27.17832 36075 ft 445 kts 326°
2026-05-06 05:50 35.42570 27.14086 36075 ft 445 kts 326°
2026-05-06 05:50 35.48021 27.10367 36075 ft 445 kts 327°
2026-05-06 05:51 35.53427 27.06784 36077 ft 445 kts 327°
2026-05-06 05:51 35.58855 27.03167 36079 ft 445 kts 327°
2026-05-06 05:52 35.64189 26.99583 36080 ft 445 kts 327°
2026-05-06 05:52 35.69677 26.95880 36084 ft 445 kts 327°
2026-05-06 05:53 35.75086 26.92224 36085 ft 444 kts 327°
2026-05-06 05:53 35.80483 26.88573 36086 ft 444 kts 327°
2026-05-06 05:54 35.85889 26.84909 36085 ft 444 kts 327°
2026-05-06 05:54 35.91299 26.81237 36089 ft 445 kts 327°
2026-05-06 05:55 35.96712 26.77558 36086 ft 445 kts 327°
2026-05-06 05:55 36.02113 26.73881 36086 ft 444 kts 327°
2026-05-06 05:56 36.07513 26.70198 36088 ft 444 kts 327°
2026-05-06 05:56 36.12893 26.66524 36088 ft 444 kts 327°
2026-05-06 05:57 36.18283 26.62836 36088 ft 444 kts 327°
2026-05-06 05:57 36.23675 26.59141 36088 ft 444 kts 327°
2026-05-06 05:58 36.29052 26.55451 36085 ft 443 kts 327°
2026-05-06 05:58 36.34449 26.51742 36089 ft 443 kts 327°
2026-05-06 05:59 36.39838 26.48032 36091 ft 443 kts 327°
2026-05-06 05:59 36.45227 26.44316 36089 ft 443 kts 327°
2026-05-06 06:00 36.50577 26.40621 36091 ft 443 kts 327°
2026-05-06 06:00 36.55085 26.37503 36096 ft 443 kts 327°
2026-05-06 06:01 36.60472 26.33772 36091 ft 443 kts 327°
2026-05-06 06:01 36.66735 26.29426 36091 ft 443 kts 327°
2026-05-06 06:02 36.71251 26.26287 36091 ft 443 kts 327°
2026-05-06 06:02 36.76630 26.22542 36091 ft 443 kts 327°
2026-05-06 06:03 36.82004 26.18795 36092 ft 443 kts 327°
2026-05-06 06:03 36.87390 26.15034 36091 ft 443 kts 327°
2026-05-06 06:04 36.92776 26.11268 36094 ft 443 kts 327°
2026-05-06 06:04 36.98156 26.07498 36092 ft 443 kts 327°
2026-05-06 06:05 37.03500 26.03748 36091 ft 443 kts 327°
2026-05-06 06:05 37.08878 25.99967 36092 ft 443 kts 327°
2026-05-06 06:06 37.14254 25.96182 36091 ft 443 kts 327°
2026-05-06 06:06 37.19631 25.92389 36092 ft 443 kts 327°
2026-05-06 06:07 37.24990 25.88604 36091 ft 442 kts 327°
2026-05-06 06:07 37.30352 25.84810 36088 ft 442 kts 327°
2026-05-06 06:08 37.35703 25.81018 36088 ft 442 kts 327°
2026-05-06 06:08 37.41055 25.77218 36087 ft 442 kts 327°
2026-05-06 06:09 37.46401 25.73417 36083 ft 442 kts 327°
2026-05-06 06:09 37.51749 25.69608 36083 ft 442 kts 327°
2026-05-06 06:10 37.57096 25.65793 36099 ft 441 kts 327°
2026-05-06 06:10 37.62443 25.61971 36082 ft 441 kts 328°
2026-05-06 06:11 37.67767 25.58160 36081 ft 440 kts 328°
2026-05-06 06:11 37.73084 25.54348 36083 ft 439 kts 328°
2026-05-06 06:12 37.78396 25.50533 36086 ft 439 kts 327°
2026-05-06 06:12 37.83708 25.46712 36087 ft 439 kts 327°
2026-05-06 06:13 37.89023 25.42882 36083 ft 439 kts 327°
2026-05-06 06:13 37.94317 25.39061 36083 ft 439 kts 327°
2026-05-06 06:14 37.99623 25.35226 36084 ft 439 kts 327°
2026-05-06 06:14 38.04926 25.31384 36080 ft 438 kts 328°
2026-05-06 06:15 38.10212 25.27548 36086 ft 437 kts 328°
2026-05-06 06:15 38.15481 25.23720 36083 ft 437 kts 328°
2026-05-06 06:16 38.20717 25.19910 36080 ft 436 kts 328°
2026-05-06 06:16 38.25857 25.16162 36080 ft 436 kts 327°
2026-05-06 06:17 38.31118 25.12318 36077 ft 436 kts 327°
2026-05-06 06:17 38.36362 25.08481 36092 ft 436 kts 328°
2026-05-06 06:18 38.41614 25.04633 36074 ft 437 kts 328°
2026-05-06 06:18 38.46835 25.00800 36055 ft 437 kts 328°
2026-05-06 06:19 38.52032 24.96979 36078 ft 434 kts 327°
2026-05-06 06:19 38.57260 24.93129 36077 ft 434 kts 327°
2026-05-06 06:20 38.62452 24.89299 36082 ft 434 kts 327°
2026-05-06 06:20 38.67641 24.85463 36084 ft 434 kts 327°
2026-05-06 06:21 38.72870 24.81592 36085 ft 434 kts 327°
2026-05-06 06:21 38.78045 24.77755 36083 ft 434 kts 327°
2026-05-06 06:22 38.83236 24.73899 36060 ft 434 kts 327°
2026-05-06 06:22 38.88423 24.70040 36071 ft 434 kts 327°
2026-05-06 06:23 38.93628 24.66160 36075 ft 434 kts 327°
2026-05-06 06:23 38.98844 24.62266 36072 ft 434 kts 327°
2026-05-06 06:24 39.04060 24.58365 36070 ft 434 kts 327°
2026-05-06 06:24 39.09264 24.54467 36079 ft 434 kts 327°
2026-05-06 06:25 39.14467 24.50562 36065 ft 434 kts 327°
2026-05-06 06:26 39.22274 24.44690 36064 ft 435 kts 327°
2026-05-06 06:26 39.27468 24.40776 36065 ft 434 kts 327°
2026-05-06 06:27 39.32571 24.36923 36056 ft 434 kts 327°
2026-05-06 06:27 39.37842 24.32935 36068 ft 433 kts 327°
2026-05-06 06:28 39.43041 24.28997 36064 ft 433 kts 327°
2026-05-06 06:28 39.48226 24.25061 36063 ft 433 kts 327°
2026-05-06 06:29 39.53397 24.21130 36067 ft 433 kts 327°
2026-05-06 06:29 39.58561 24.17197 36062 ft 433 kts 327°
2026-05-06 06:30 39.63726 24.13257 36067 ft 433 kts 327°
2026-05-06 06:30 39.68911 24.09293 36064 ft 433 kts 327°
2026-05-06 06:31 39.74065 24.05348 36061 ft 433 kts 327°
2026-05-06 06:31 39.79235 24.01382 36063 ft 433 kts 327°
2026-05-06 06:32 39.84422 23.97397 36061 ft 433 kts 327°
2026-05-06 06:32 39.89593 23.93417 36063 ft 433 kts 327°
2026-05-06 06:33 39.94769 23.89426 36067 ft 433 kts 327°
2026-05-06 06:33 39.99937 23.85433 36067 ft 433 kts 327°
2026-05-06 06:34 40.05103 23.81436 36066 ft 433 kts 327°
2026-05-06 06:34 40.10281 23.77423 36078 ft 433 kts 327°
2026-05-06 06:35 40.15444 23.73414 36069 ft 434 kts 327°
2026-05-06 06:35 40.20591 23.69409 36069 ft 434 kts 326°
2026-05-06 06:36 40.25774 23.65368 36071 ft 434 kts 326°
2026-05-06 06:36 40.30917 23.61352 36071 ft 433 kts 326°
2026-05-06 06:37 40.36073 23.57320 36068 ft 434 kts 326°
2026-05-06 06:37 40.41236 23.53273 36074 ft 434 kts 326°
2026-05-06 06:38 40.46404 23.49217 36068 ft 434 kts 326°
2026-05-06 06:38 40.51574 23.45150 36068 ft 433 kts 326°
2026-05-06 06:39 40.56730 23.41089 36069 ft 434 kts 326°
2026-05-06 06:39 40.61913 23.36998 36074 ft 434 kts 326°
2026-05-06 06:40 40.67064 23.32924 36074 ft 434 kts 326°
2026-05-06 06:40 40.72235 23.28827 36077 ft 434 kts 326°
2026-05-06 06:41 40.77396 23.24730 36078 ft 434 kts 326°
2026-05-06 06:41 40.82569 23.20617 36091 ft 434 kts 326°
2026-05-06 06:42 40.87738 23.16499 36079 ft 435 kts 326°
2026-05-06 06:42 40.92909 23.12374 36081 ft 435 kts 326°
2026-05-06 06:43 40.98053 23.08261 36079 ft 435 kts 326°
2026-05-06 06:43 41.03189 23.04147 36081 ft 436 kts 326°
2026-05-06 06:44 41.08299 22.99864 36092 ft 435 kts 321°
2026-05-06 06:44 41.12609 22.94392 36080 ft 433 kts 310°
2026-05-06 06:45 41.16523 22.88350 36080 ft 435 kts 309°
2026-05-06 06:45 41.20406 22.82191 36084 ft 435 kts 309°
2026-05-06 06:46 41.24294 22.76030 36079 ft 436 kts 309°
2026-05-06 06:46 41.28213 22.70071 36085 ft 437 kts 311°
2026-05-06 06:47 41.32398 22.64049 36084 ft 437 kts 311°
2026-05-06 06:47 41.36511 22.58109 36092 ft 437 kts 311°
2026-05-06 06:48 41.40594 22.52137 36085 ft 437 kts 311°
2026-05-06 06:48 41.44662 22.46149 36085 ft 437 kts 311°
2026-05-06 06:49 41.48053 22.41148 36101 ft 439 kts 310°
2026-05-06 06:49 41.52821 22.34102 36104 ft 440 kts 310°
2026-05-06 06:50 41.56218 22.29073 36089 ft 440 kts 310°
2026-05-06 06:50 41.60287 22.23039 36102 ft 440 kts 310°
2026-05-06 06:51 41.64365 22.16979 36090 ft 440 kts 310°
2026-05-06 06:51 41.68440 22.10913 36101 ft 440 kts 310°
2026-05-06 06:52 41.72526 22.04817 36084 ft 443 kts 310°
2026-05-06 06:52 41.76615 21.98703 36088 ft 443 kts 310°
2026-05-06 06:53 41.80660 21.92642 36088 ft 443 kts 310°
2026-05-06 06:53 41.84759 21.86488 36108 ft 443 kts 310°
2026-05-06 06:54 41.88825 21.80370 36112 ft 443 kts 310°
2026-05-06 06:54 41.92923 21.74194 36090 ft 446 kts 310°
2026-05-06 06:55 41.97026 21.67995 36110 ft 447 kts 310°
2026-05-06 06:55 42.01151 21.61750 36109 ft 447 kts 310°
2026-05-06 06:56 42.05267 21.55505 36108 ft 447 kts 310°
2026-05-06 06:56 42.09387 21.49244 36106 ft 447 kts 310°
2026-05-06 06:57 42.13470 21.43023 36137 ft 447 kts 310°
2026-05-06 06:57 42.15525 21.39890 36412 ft 445 kts 309°
2026-05-06 06:57 42.17524 21.36823 36776 ft 442 kts 309°
2026-05-06 06:57 42.19537 21.33662 37084 ft 441 kts 308°
2026-05-06 06:58 42.21507 21.30525 37378 ft 440 kts 308°
2026-05-06 06:58 42.23472 21.27383 37646 ft 440 kts 308°
2026-05-06 06:58 42.25425 21.24259 37894 ft 439 kts 308°
2026-05-06 06:58 42.27388 21.21126 38075 ft 440 kts 308°
2026-05-06 06:59 42.29334 21.18020 38102 ft 443 kts 308°
2026-05-06 06:59 42.33326 21.11656 38100 ft 444 kts 308°
2026-05-06 07:00 42.37310 21.05295 38100 ft 445 kts 308°
2026-05-06 07:00 42.41302 20.98908 38100 ft 445 kts 308°
2026-05-06 07:01 42.45277 20.92530 38103 ft 444 kts 308°
2026-05-06 07:01 42.49253 20.86135 38102 ft 445 kts 308°
2026-05-06 07:02 42.53231 20.79726 38092 ft 445 kts 307°
2026-05-06 07:02 42.57204 20.73312 38099 ft 446 kts 307°
2026-05-06 07:03 42.61158 20.66912 38094 ft 446 kts 307°
2026-05-06 07:03 42.65124 20.60479 38088 ft 446 kts 307°
2026-05-06 07:04 42.69086 20.54039 38090 ft 446 kts 307°
2026-05-06 07:04 42.73054 20.47575 38087 ft 446 kts 307°
2026-05-06 07:05 42.76996 20.41141 38068 ft 445 kts 307°
2026-05-06 07:05 42.80947 20.34676 38088 ft 445 kts 307°
2026-05-06 07:06 42.84864 20.28269 38085 ft 445 kts 307°
2026-05-06 07:06 42.88882 20.21866 38064 ft 445 kts 308°
2026-05-06 07:07 42.92915 20.15474 38062 ft 445 kts 308°
2026-05-06 07:07 42.96937 20.09062 38076 ft 447 kts 307°
2026-05-06 07:08 43.00960 20.02613 38069 ft 447 kts 307°
2026-05-06 07:08 43.04960 19.96183 38072 ft 447 kts 307°
2026-05-06 07:09 43.08958 19.89743 38068 ft 447 kts 307°
2026-05-06 07:09 43.12961 19.83282 38069 ft 447 kts 307°
2026-05-06 07:10 43.16957 19.76817 38066 ft 447 kts 307°
2026-05-06 07:10 43.20958 19.70330 38067 ft 449 kts 307°
2026-05-06 07:11 43.24968 19.63814 38060 ft 448 kts 307°
2026-05-06 07:11 43.28975 19.57288 38070 ft 449 kts 307°
2026-05-06 07:12 43.32989 19.50738 38042 ft 449 kts 307°
2026-05-06 07:12 43.36973 19.44222 38046 ft 449 kts 306°
2026-05-06 07:13 43.40977 19.37655 38056 ft 450 kts 306°
2026-05-06 07:13 43.44993 19.31055 38059 ft 450 kts 306°
2026-05-06 07:14 43.48982 19.24486 38038 ft 450 kts 306°
2026-05-06 07:14 43.52979 19.17888 38034 ft 450 kts 306°
2026-05-06 07:15 43.56984 19.11260 38067 ft 451 kts 306°
2026-05-06 07:15 43.60989 19.04618 38045 ft 450 kts 306°
2026-05-06 07:16 43.64968 18.98006 38060 ft 450 kts 306°
2026-05-06 07:16 43.68948 18.91378 38047 ft 451 kts 305°
2026-05-06 07:17 43.72940 18.84709 38044 ft 452 kts 305°
2026-05-06 07:17 43.76943 18.78008 38042 ft 452 kts 305°
2026-05-06 07:18 43.80921 18.71335 38040 ft 452 kts 305°
2026-05-06 07:18 43.84907 18.64634 38043 ft 452 kts 305°
2026-05-06 07:19 43.88881 18.57937 38043 ft 452 kts 305°
2026-05-06 07:19 43.92862 18.51212 38043 ft 452 kts 305°
2026-05-06 07:20 43.96834 18.44485 38042 ft 451 kts 304°
2026-05-06 07:20 44.00786 18.37780 38037 ft 452 kts 305°
2026-05-06 07:21 44.04741 18.31056 38043 ft 452 kts 304°
2026-05-06 07:21 44.08697 18.24308 38032 ft 451 kts 304°
2026-05-06 07:22 44.12658 18.17540 38032 ft 452 kts 304°
2026-05-06 07:22 44.16611 18.10768 38028 ft 452 kts 304°
2026-05-06 07:23 44.20569 18.03972 38024 ft 453 kts 304°
2026-05-06 07:23 44.24528 17.97156 38020 ft 453 kts 304°
2026-05-06 07:24 44.28468 17.90360 38018 ft 453 kts 304°
2026-05-06 07:24 44.32388 17.83580 38013 ft 453 kts 304°
2026-05-06 07:25 44.36344 17.76720 38015 ft 454 kts 303°
2026-05-06 07:25 44.40392 17.69909 38010 ft 456 kts 306°
2026-05-06 07:26 44.44568 17.63261 38009 ft 456 kts 306°
2026-05-06 07:26 44.48740 17.56600 37999 ft 456 kts 306°
2026-05-06 07:27 44.52880 17.49907 38001 ft 456 kts 305°
2026-05-06 07:27 44.57007 17.43192 38000 ft 457 kts 305°
2026-05-06 07:28 44.61109 17.36499 37990 ft 457 kts 305°
2026-05-06 07:28 44.67295 17.26431 37991 ft 457 kts 305°
2026-05-06 07:29 44.71473 17.19690 37988 ft 459 kts 305°
2026-05-06 07:29 44.75635 17.12950 37986 ft 459 kts 305°
2026-05-06 07:30 44.79800 17.06182 37988 ft 459 kts 304°
2026-05-06 07:30 44.83964 16.99394 37986 ft 459 kts 304°
2026-05-06 07:31 44.88043 16.92564 37967 ft 459 kts 303°
2026-05-06 07:31 44.92101 16.85606 37987 ft 460 kts 303°
2026-05-06 07:32 44.96169 16.78637 37989 ft 460 kts 303°
2026-05-06 07:32 45.00234 16.71689 37961 ft 460 kts 303°
2026-05-06 07:33 45.04310 16.64717 37977 ft 461 kts 303°
2026-05-06 07:33 45.08365 16.57761 37975 ft 464 kts 303°
2026-05-06 07:34 45.12449 16.50739 37968 ft 465 kts 303°
2026-05-06 07:34 45.16542 16.43672 37971 ft 464 kts 302°
2026-05-06 07:35 45.20562 16.36603 37983 ft 464 kts 302°
2026-05-06 07:35 45.23950 16.30601 37965 ft 467 kts 302°
2026-05-06 07:36 45.28019 16.23390 37963 ft 469 kts 302°
2026-05-06 07:36 45.32088 16.16178 37964 ft 469 kts 302°
2026-05-06 07:37 45.36154 16.08963 37960 ft 469 kts 302°
2026-05-06 07:37 45.40869 16.00565 37961 ft 474 kts 302°
2026-05-06 07:38 45.44299 15.94440 37959 ft 475 kts 302°
2026-05-06 07:38 45.48395 15.87110 37961 ft 475 kts 302°
2026-05-06 07:39 45.52489 15.79767 37960 ft 475 kts 302°
2026-05-06 07:39 45.56589 15.72389 37965 ft 477 kts 303°
2026-05-06 07:40 45.60710 15.64955 37955 ft 479 kts 303°
2026-05-06 07:40 45.64843 15.57484 37954 ft 479 kts 303°
2026-05-06 07:41 45.68957 15.50027 37957 ft 479 kts 303°
2026-05-06 07:41 45.73011 15.42654 37962 ft 479 kts 303°
2026-05-06 07:42 45.77184 15.35048 37960 ft 479 kts 303°
2026-05-06 07:42 45.81290 15.27538 37959 ft 479 kts 303°
2026-05-06 07:43 45.85386 15.20012 37962 ft 479 kts 302°
2026-05-06 07:43 45.89460 15.12508 37973 ft 479 kts 303°
2026-05-06 07:44 45.93554 15.04951 37954 ft 480 kts 303°
2026-05-06 07:44 45.97611 14.97442 37955 ft 480 kts 303°
2026-05-06 07:45 46.01690 14.89876 37950 ft 478 kts 302°
2026-05-06 07:45 46.05767 14.82286 37980 ft 478 kts 302°
2026-05-06 07:46 46.09755 14.74859 37957 ft 471 kts 303°
2026-05-06 07:46 46.13789 14.67509 37979 ft 470 kts 303°
2026-05-06 07:47 46.17850 14.60143 37964 ft 470 kts 303°
2026-05-06 07:47 46.21897 14.52758 37967 ft 470 kts 303°
2026-05-06 07:48 46.25889 14.45441 37967 ft 464 kts 302°
2026-05-06 07:48 46.29823 14.38206 37969 ft 459 kts 302°
2026-05-06 07:49 46.33759 14.30942 37962 ft 460 kts 302°
2026-05-06 07:49 46.37682 14.23683 37957 ft 460 kts 302°
2026-05-06 07:50 46.41611 14.16398 37956 ft 459 kts 301°
2026-05-06 07:50 46.45504 14.09165 37932 ft 455 kts 301°
2026-05-06 07:51 46.49413 14.02210 37939 ft 459 kts 306°
2026-05-06 07:51 46.53852 13.95344 37935 ft 461 kts 307°
2026-05-06 07:52 46.58259 13.88661 37919 ft 461 kts 307°
2026-05-06 07:52 46.62694 13.81941 37925 ft 462 kts 306°
2026-05-06 07:53 46.67125 13.75194 37913 ft 463 kts 306°
2026-05-06 07:53 46.71554 13.68423 37911 ft 463 kts 306°
2026-05-06 07:54 46.75949 13.61690 37915 ft 463 kts 306°
2026-05-06 07:54 46.80374 13.54898 37946 ft 464 kts 306°
2026-05-06 07:55 46.84799 13.48073 37912 ft 467 kts 307°
2026-05-06 07:55 46.89258 13.41179 37917 ft 468 kts 307°
2026-05-06 07:56 46.93703 13.34296 37912 ft 468 kts 306°
2026-05-06 07:56 46.98170 13.27363 37899 ft 468 kts 306°
2026-05-06 07:57 47.02602 13.20468 37905 ft 468 kts 306°
2026-05-06 07:57 47.07060 13.13513 37885 ft 470 kts 306°
2026-05-06 07:58 47.11525 13.06525 37882 ft 475 kts 306°
2026-05-06 07:58 47.16020 12.99473 37868 ft 475 kts 306°
2026-05-06 07:59 47.20535 12.92372 37853 ft 474 kts 306°
2026-05-06 07:59 47.25028 12.85287 37848 ft 476 kts 306°
2026-05-06 08:00 47.29546 12.78146 37842 ft 478 kts 306°
2026-05-06 08:00 47.34044 12.71013 37838 ft 479 kts 305°
2026-05-06 08:01 47.38498 12.63789 37822 ft 478 kts 302°
2026-05-06 08:01 47.42911 12.56440 37837 ft 480 kts 303°
2026-05-06 08:02 47.47387 12.49148 37812 ft 484 kts 304°
2026-05-06 08:02 47.51959 12.41811 37818 ft 486 kts 304°
2026-05-06 08:03 47.56541 12.34460 37820 ft 485 kts 304°
2026-05-06 08:03 47.61098 12.27121 37811 ft 487 kts 304°
2026-05-06 08:04 47.65196 12.19339 37804 ft 475 kts 294°
2026-05-06 08:04 47.68751 12.11057 37808 ft 477 kts 293°
2026-05-06 08:05 47.72230 12.02688 37809 ft 478 kts 293°
2026-05-06 08:05 47.75714 11.94297 37813 ft 478 kts 293°
2026-05-06 08:06 47.79192 11.85908 37826 ft 478 kts 293°
2026-05-06 08:06 47.82672 11.77504 37808 ft 479 kts 293°
2026-05-06 08:07 47.86150 11.69087 37820 ft 479 kts 292°
2026-05-06 08:07 47.89625 11.60651 37804 ft 479 kts 292°
2026-05-06 08:08 47.93079 11.52239 37808 ft 479 kts 292°
2026-05-06 08:08 47.96516 11.43843 37825 ft 480 kts 292°
2026-05-06 08:09 47.99950 11.35424 37829 ft 481 kts 292°
2026-05-06 08:09 48.03409 11.26921 37828 ft 481 kts 292°
2026-05-06 08:10 48.06853 11.18427 37815 ft 481 kts 292°
2026-05-06 08:10 48.10297 11.09906 37834 ft 481 kts 292°
2026-05-06 08:11 48.13733 11.01376 37828 ft 482 kts 292°
2026-05-06 08:11 48.17141 10.92890 37829 ft 481 kts 292°
2026-05-06 08:12 48.20564 10.84337 37829 ft 481 kts 292°
2026-05-06 08:12 48.23946 10.75861 37828 ft 481 kts 292°
2026-05-06 08:13 48.27344 10.67317 37825 ft 480 kts 292°
2026-05-06 08:13 48.30707 10.58838 37819 ft 479 kts 292°
2026-05-06 08:14 48.34084 10.50296 37811 ft 479 kts 292°
2026-05-06 08:14 48.37436 10.41789 37814 ft 479 kts 292°
2026-05-06 08:15 48.40808 10.33203 37810 ft 480 kts 292°
2026-05-06 08:15 48.44185 10.24578 37813 ft 481 kts 292°
2026-05-06 08:16 48.47562 10.15926 37810 ft 481 kts 292°
2026-05-06 08:16 48.50938 10.07247 37810 ft 481 kts 292°
2026-05-06 08:17 48.54310 9.98550 37812 ft 481 kts 292°
2026-05-06 08:17 48.57660 9.89881 37790 ft 482 kts 292°
2026-05-06 08:18 48.61011 9.81181 37788 ft 482 kts 292°
2026-05-06 08:18 48.64355 9.72469 37788 ft 482 kts 292°
2026-05-06 08:19 48.67925 9.63931 37804 ft 488 kts 298°
2026-05-06 08:19 48.71953 9.55727 37788 ft 486 kts 299°
2026-05-06 08:20 48.75992 9.47630 37782 ft 485 kts 299°
2026-05-06 08:20 48.80028 9.39525 37789 ft 485 kts 299°
2026-05-06 08:21 48.84045 9.31415 37803 ft 485 kts 299°
2026-05-06 08:21 48.88072 9.23251 37804 ft 485 kts 299°
2026-05-06 08:22 48.92069 9.15120 37796 ft 485 kts 299°
2026-05-06 08:22 48.96102 9.06894 37794 ft 486 kts 299°
2026-05-06 08:23 48.99462 9.00023 37791 ft 486 kts 299°
2026-05-06 08:23 49.04143 8.90420 37793 ft 486 kts 299°
2026-05-06 08:24 49.08153 8.82166 37796 ft 486 kts 299°
2026-05-06 08:24 49.11530 8.75197 37790 ft 488 kts 299°
2026-05-06 08:25 49.15526 8.66923 37790 ft 489 kts 299°
2026-05-06 08:25 49.19542 8.58581 37790 ft 489 kts 299°
2026-05-06 08:26 49.23568 8.50197 37794 ft 489 kts 299°
2026-05-06 08:26 49.27580 8.41812 37787 ft 489 kts 299°
2026-05-06 08:27 49.31565 8.33458 37782 ft 489 kts 299°
2026-05-06 08:27 49.35543 8.25094 37782 ft 489 kts 299°
2026-05-06 08:28 49.39532 8.16679 37777 ft 489 kts 299°
2026-05-06 08:28 49.43519 8.08242 37778 ft 489 kts 299°
2026-05-06 08:29 49.47488 7.99818 37783 ft 490 kts 299°
2026-05-06 08:29 49.51481 7.91314 37773 ft 492 kts 299°
2026-05-06 08:30 49.55463 7.82805 37776 ft 492 kts 299°
2026-05-06 08:30 49.59448 7.74265 37778 ft 491 kts 299°
2026-05-06 08:31 49.63434 7.65695 37781 ft 491 kts 299°
2026-05-06 08:31 49.67396 7.57150 37767 ft 492 kts 299°
2026-05-06 08:32 49.71347 7.48598 37759 ft 492 kts 299°
2026-05-06 08:32 49.75310 7.39993 37757 ft 492 kts 299°
2026-05-06 08:33 49.79267 7.31373 37752 ft 492 kts 299°
2026-05-06 08:33 49.83188 7.22805 37756 ft 493 kts 299°
2026-05-06 08:34 49.89124 7.09782 37746 ft 495 kts 299°
2026-05-06 08:35 49.93072 7.01085 37766 ft 494 kts 299°
2026-05-06 08:35 49.97026 6.92344 37753 ft 494 kts 299°
2026-05-06 08:36 50.00953 6.83636 37772 ft 494 kts 299°
2026-05-06 08:36 50.04875 6.74910 37767 ft 494 kts 299°
2026-05-06 08:37 50.08775 6.66203 37747 ft 494 kts 299°
2026-05-06 08:37 50.12647 6.57530 37745 ft 494 kts 299°
2026-05-06 08:38 50.16566 6.48722 37745 ft 494 kts 299°
2026-05-06 08:38 50.20097 6.39704 37776 ft 490 kts 294°
2026-05-06 08:39 50.23387 6.30404 37769 ft 492 kts 293°
2026-05-06 08:39 50.26650 6.21031 37792 ft 492 kts 293°
2026-05-06 08:40 50.29833 6.11871 37794 ft 493 kts 293°
2026-05-06 08:40 50.33360 6.02491 37801 ft 494 kts 296°
2026-05-06 08:41 50.36994 5.93368 37804 ft 494 kts 296°
2026-05-06 08:41 50.40587 5.84231 37812 ft 494 kts 296°
2026-05-06 08:42 50.44125 5.75081 37813 ft 494 kts 295°
2026-05-06 08:42 50.47667 5.65842 37821 ft 495 kts 295°
2026-05-06 08:43 50.51201 5.56592 37836 ft 494 kts 295°
2026-05-06 08:43 50.54721 5.47348 37828 ft 493 kts 295°
2026-05-06 08:44 50.58209 5.38165 37828 ft 493 kts 295°
2026-05-06 08:44 50.61703 5.28931 37829 ft 493 kts 295°
2026-05-06 08:45 50.65197 5.19664 37832 ft 493 kts 295°
2026-05-06 08:45 50.68684 5.10381 37841 ft 492 kts 295°
2026-05-06 08:46 50.72062 5.01360 37843 ft 492 kts 295°
2026-05-06 08:46 50.75171 4.93026 37845 ft 492 kts 295°
2026-05-06 08:47 50.78633 4.83714 37859 ft 492 kts 295°
2026-05-06 08:47 50.82077 4.74416 37855 ft 491 kts 295°
2026-05-06 08:48 50.85502 4.65140 37860 ft 491 kts 295°
2026-05-06 08:48 50.88928 4.55825 37857 ft 490 kts 295°
2026-05-06 08:49 50.92387 4.46533 37853 ft 490 kts 296°
2026-05-06 08:49 50.95943 4.37342 37856 ft 490 kts 296°
2026-05-06 08:50 50.99498 4.28143 37855 ft 490 kts 296°
2026-05-06 08:50 51.03036 4.18894 37859 ft 490 kts 296°
2026-05-06 08:51 51.06543 4.09662 37863 ft 490 kts 296°
2026-05-06 08:51 51.10048 4.00393 37861 ft 490 kts 296°
2026-05-06 08:52 51.13546 3.91112 37867 ft 490 kts 296°
2026-05-06 08:52 51.17044 3.81803 37867 ft 490 kts 296°
2026-05-06 08:53 51.20531 3.72490 37874 ft 490 kts 295°
2026-05-06 08:53 51.24019 3.63139 37871 ft 491 kts 296°
2026-05-06 08:54 51.27489 3.53798 37882 ft 491 kts 295°
2026-05-06 08:54 51.30960 3.44418 37882 ft 491 kts 295°
2026-05-06 08:55 51.34298 3.34940 37897 ft 488 kts 289°
2026-05-06 08:55 51.36842 3.24936 37911 ft 486 kts 286°
2026-05-06 08:56 51.39227 3.14821 37907 ft 487 kts 285°
2026-05-06 08:56 51.41592 3.04669 37916 ft 487 kts 285°
2026-05-06 08:57 51.43960 2.94533 37921 ft 487 kts 285°
2026-05-06 08:57 51.46329 2.84392 37909 ft 487 kts 285°
2026-05-06 08:58 51.48684 2.74261 37909 ft 485 kts 285°
2026-05-06 08:58 51.51011 2.64202 37592 ft 483 kts 285°
2026-05-06 08:58 51.52169 2.59188 37333 ft 481 kts 285°
2026-05-06 08:59 51.53303 2.54248 37042 ft 480 kts 285°
2026-05-06 08:59 51.54447 2.49268 36593 ft 472 kts 285°
2026-05-06 08:59 51.55568 2.44372 36055 ft 467 kts 286°
2026-05-06 08:59 51.56671 2.39541 35407 ft 461 kts 286°
2026-05-06 09:00 51.57754 2.34827 34721 ft 449 kts 286°
2026-05-06 09:00 51.58819 2.30218 34026 ft 439 kts 286°
2026-05-06 09:00 51.59858 2.25715 33274 ft 428 kts 285°
2026-05-06 09:00 51.60876 2.21304 32587 ft 416 kts 285°
2026-05-06 09:01 51.61836 2.16983 31976 ft 404 kts 282°
2026-05-06 09:01 51.62728 2.12785 31225 ft 397 kts 283°
2026-05-06 09:01 51.63616 2.08620 30563 ft 395 kts 284°
2026-05-06 09:01 51.64587 2.04533 29886 ft 394 kts 284°
2026-05-06 09:02 51.65574 2.00437 29375 ft 391 kts 284°
2026-05-06 09:02 51.66516 1.96398 28928 ft 389 kts 284°
2026-05-06 09:02 51.67438 1.92334 28480 ft 387 kts 284°
2026-05-06 09:02 51.68338 1.88324 28054 ft 380 kts 283°
2026-05-06 09:03 51.69218 1.84387 27590 ft 375 kts 282°
2026-05-06 09:03 51.70092 1.80449 27113 ft 371 kts 283°
2026-05-06 09:03 51.70937 1.76565 26678 ft 366 kts 280°
2026-05-06 09:03 51.71746 1.72705 26241 ft 363 kts 280°
2026-05-06 09:04 51.72563 1.68854 25810 ft 361 kts 280°
2026-05-06 09:04 51.73372 1.65053 25397 ft 360 kts 279°
2026-05-06 09:04 51.73951 1.61226 24985 ft 353 kts 270°
2026-05-06 09:04 51.74034 1.57322 24442 ft 348 kts 257°
2026-05-06 09:05 51.73798 1.53465 23877 ft 347 kts 256°
2026-05-06 09:05 51.73527 1.49599 23343 ft 346 kts 255°
2026-05-06 09:05 51.73267 1.45797 22778 ft 343 kts 256°
2026-05-06 09:05 51.73012 1.42013 22300 ft 341 kts 256°
2026-05-06 09:06 51.72758 1.38267 21802 ft 340 kts 256°
2026-05-06 09:06 51.72511 1.34571 21267 ft 336 kts 257°
2026-05-06 09:06 51.72266 1.30835 20775 ft 333 kts 257°
2026-05-06 09:06 51.72028 1.27225 20281 ft 329 kts 257°
2026-05-06 09:07 51.71788 1.23610 19798 ft 325 kts 257°
2026-05-06 09:07 51.71549 1.20040 19319 ft 322 kts 257°
2026-05-06 09:07 51.71312 1.16482 18842 ft 320 kts 257°
2026-05-06 09:07 51.71074 1.12948 18366 ft 318 kts 258°
2026-05-06 09:08 51.70838 1.09416 17846 ft 318 kts 258°
2026-05-06 09:08 51.70597 1.05906 17356 ft 315 kts 258°
2026-05-06 09:08 51.70361 1.02459 16894 ft 312 kts 258°
2026-05-06 09:08 51.70126 0.99047 16437 ft 308 kts 258°
2026-05-06 09:09 51.69896 0.95632 16070 ft 306 kts 258°
2026-05-06 09:09 51.69667 0.92245 15961 ft 306 kts 258°
2026-05-06 09:09 51.69429 0.88819 15958 ft 308 kts 258°
2026-05-06 09:09 51.69188 0.85414 15962 ft 308 kts 258°
2026-05-06 09:10 51.68947 0.82002 15965 ft 307 kts 258°
2026-05-06 09:10 51.68706 0.78606 15959 ft 305 kts 258°
2026-05-06 09:10 51.68463 0.75263 15530 ft 301 kts 258°
2026-05-06 09:10 51.68222 0.71875 14777 ft 307 kts 258°
2026-05-06 09:11 51.67980 0.68463 14188 ft 308 kts 258°
2026-05-06 09:11 51.67815 0.66190 13793 ft 308 kts 258°
2026-05-06 09:11 51.67565 0.62755 13240 ft 305 kts 258°
2026-05-06 09:11 51.67321 0.59433 12648 ft 304 kts 258°
2026-05-06 09:12 51.67146 0.56100 12182 ft 301 kts 270°
2026-05-06 09:12 51.67100 0.52782 11809 ft 297 kts 269°
2026-05-06 09:12 51.66993 0.49454 11106 ft 294 kts 268°
2026-05-06 09:12 51.66833 0.46216 10489 ft 290 kts 266°
2026-05-06 09:13 51.66644 0.43076 10104 ft 289 kts 266°
2026-05-06 09:13 51.66426 0.39885 9734 ft 286 kts 267°
2026-05-06 09:13 51.66201 0.36684 9358 ft 283 kts 265°
2026-05-06 09:13 51.65978 0.33625 9022 ft 282 kts 266°
2026-05-06 09:14 51.65750 0.30504 8676 ft 280 kts 266°
2026-05-06 09:14 51.65521 0.27398 8332 ft 278 kts 266°
2026-05-06 09:14 51.65296 0.24397 8050 ft 275 kts 266°
2026-05-06 09:14 51.65069 0.21380 7986 ft 271 kts 266°
2026-05-06 09:15 51.64847 0.18473 7990 ft 254 kts 266°
2026-05-06 09:15 51.64639 0.15762 7996 ft 241 kts 266°
2026-05-06 09:15 51.64456 0.13110 7999 ft 240 kts 269°
2026-05-06 09:15 51.64317 0.10426 7994 ft 241 kts 269°
2026-05-06 09:16 51.64180 0.07738 7988 ft 241 kts 269°
2026-05-06 09:16 51.64041 0.05078 7988 ft 241 kts 269°
2026-05-06 09:16 51.63895 0.02377 7991 ft 242 kts 269°
2026-05-06 09:16 51.63748 -0.00299 8007 ft 242 kts 269°
2026-05-06 09:17 51.63598 -0.02992 8003 ft 242 kts 268°
2026-05-06 09:17 51.63448 -0.05678 8010 ft 241 kts 268°
2026-05-06 09:17 51.63297 -0.08355 8013 ft 241 kts 268°
2026-05-06 09:17 51.63147 -0.11008 8014 ft 241 kts 268°
2026-05-06 09:18 51.62995 -0.13699 8015 ft 241 kts 268°
2026-05-06 09:18 51.62842 -0.16361 8017 ft 241 kts 268°
2026-05-06 09:18 51.62688 -0.19051 8021 ft 241 kts 268°
2026-05-06 09:18 51.62535 -0.21723 8018 ft 241 kts 268°
2026-05-06 09:19 51.62380 -0.24400 8023 ft 241 kts 268°
2026-05-06 09:19 51.62224 -0.27083 8019 ft 241 kts 268°
2026-05-06 09:19 51.62069 -0.29763 8021 ft 241 kts 268°
2026-05-06 09:19 51.61914 -0.32420 7993 ft 241 kts 268°
2026-05-06 09:20 51.61756 -0.35100 7990 ft 240 kts 268°
2026-05-06 09:20 51.61599 -0.37764 7991 ft 241 kts 268°
2026-05-06 09:20 51.61443 -0.40406 7991 ft 241 kts 268°
2026-05-06 09:20 51.61284 -0.43090 7992 ft 240 kts 268°
2026-05-06 09:21 51.61125 -0.45757 7995 ft 240 kts 268°
2026-05-06 09:21 51.60966 -0.48419 7993 ft 240 kts 268°
2026-05-06 09:21 51.60805 -0.51098 7996 ft 240 kts 268°
2026-05-06 09:21 51.60644 -0.53747 7994 ft 241 kts 268°
2026-05-06 09:22 51.60478 -0.56427 7987 ft 241 kts 268°
2026-05-06 09:22 51.60316 -0.59082 7994 ft 241 kts 268°
2026-05-06 09:22 51.60153 -0.61761 7986 ft 240 kts 268°
2026-05-06 09:22 51.59986 -0.64367 7724 ft 236 kts 268°
2026-05-06 09:23 51.59816 -0.67002 7326 ft 237 kts 268°
2026-05-06 09:23 51.59641 -0.69612 6994 ft 237 kts 268°
2026-05-06 09:23 51.59456 -0.72218 6700 ft 235 kts 268°
2026-05-06 09:23 51.59266 -0.74790 6403 ft 234 kts 268°
2026-05-06 09:24 51.59067 -0.77365 6060 ft 232 kts 268°
2026-05-06 09:24 51.58868 -0.79891 5710 ft 233 kts 268°
2026-05-06 09:24 51.58516 -0.82481 5278 ft 240 kts 253°
2026-05-06 09:24 51.57551 -0.84622 4847 ft 250 kts 225°
2026-05-06 09:25 51.55991 -0.85951 4448 ft 254 kts 199°
2026-05-06 09:25 51.54331 -0.86546 4139 ft 252 kts 192°
2026-05-06 09:25 51.52578 -0.87037 3824 ft 249 kts 192°
2026-05-06 09:25 51.50876 -0.87501 3506 ft 247 kts 191°
2026-05-06 09:26 51.49269 -0.87636 3198 ft 241 kts 167°
2026-05-06 09:26 51.47897 -0.86414 3020 ft 220 kts 125°
2026-05-06 09:26 51.47394 -0.84242 3017 ft 200 kts 87°
2026-05-06 09:26 51.47466 -0.82107 2996 ft 202 kts 80°
2026-05-06 09:27 51.47567 -0.79869 2956 ft 204 kts 82°
2026-05-06 09:27 51.47573 -0.77536 2907 ft 203 kts 86°
2026-05-06 09:27 51.47571 -0.75281 2854 ft 203 kts 86°
2026-05-06 09:27 51.47577 -0.73021 2789 ft 203 kts 85°
2026-05-06 09:28 51.47588 -0.70760 2698 ft 204 kts 85°
2026-05-06 09:28 51.47601 -0.68516 2580 ft 200 kts 86°
2026-05-06 09:28 51.47613 -0.66353 2384 ft 189 kts 85°
2026-05-06 09:28 51.47626 -0.64319 2105 ft 178 kts 85°
2026-05-06 09:29 51.47639 -0.62416 1843 ft 165 kts 85°
2026-05-06 09:29 51.47649 -0.60663 1635 ft 153 kts 84°
2026-05-06 09:29 51.47661 -0.59031 1416 ft 142 kts 85°
2026-05-06 09:29 51.47671 -0.57508 1242 ft 139 kts 83°
2026-05-06 09:30 51.47683 -0.55944 1032 ft 138 kts 84°
2026-05-06 09:30 51.47692 -0.54414 837 ft 139 kts 83°
2026-05-06 09:30 51.47704 -0.52876 664 ft 142 kts 86°
2026-05-06 09:30 51.47713 -0.51313 475 ft 142 kts 84°
2026-05-06 09:31 51.47724 -0.49719 279 ft 141 kts 85°
2026-05-06 09:31 51.47739 -0.48195 120 ft 140 kts 83°
2026-05-06 09:31 51.47756 -0.46921 97 ft 62 kts 90°
2026-05-06 09:31 51.47757 -0.46726 98 ft 0 kts 89°
2026-05-06 09:32 51.47758 -0.46611 98 ft 24 kts 88°
2026-05-06 09:32 51.47757 -0.46334 97 ft 25 kts 99°
2026-05-06 09:32 51.47677 -0.46117 95 ft 21 kts 144°
2026-05-06 09:32 51.47607 -0.46012 96 ft 10 kts 116°
2026-05-06 09:33 51.47595 -0.45886 95 ft 7 kts 90°
2026-05-06 09:33 51.47595 -0.45883 95 ft 0 kts 90°
2026-05-06 09:34 51.47595 -0.45863 96 ft 4 kts 90°
2026-05-06 09:35 51.47593 -0.45807 96 ft 7 kts 101°
2026-05-06 09:35 51.47555 -0.45752 96 ft 9 kts 166°
2026-05-06 09:35 51.47524 -0.45806 95 ft 8 kts 256°
2026-05-06 09:35 51.47518 -0.45909 93 ft 11 kts 266°
2026-05-06 09:36 51.47517 -0.46044 94 ft 14 kts 269°
2026-05-06 09:36 51.47517 -0.46208 92 ft 16 kts 270°
2026-05-06 09:36 51.47516 -0.46404 94 ft 19 kts 269°
2026-05-06 09:36 51.47515 -0.46602 92 ft 11 kts 270°
2026-05-06 09:37 51.47503 -0.46739 95 ft 13 kts 257°
2026-05-06 09:37 51.47466 -0.46868 96 ft 14 kts 207°
2026-05-06 09:37 51.47357 -0.46869 95 ft 16 kts 177°
2026-05-06 09:37 51.47239 -0.46866 94 ft 17 kts 180°
2026-05-06 09:38 51.47138 -0.46865 92 ft 12 kts 179°
2026-05-06 09:38 51.47042 -0.46864 92 ft 16 kts 179°
2026-05-06 09:38 51.46991 -0.46942 96 ft 4 kts 258°
2026-05-06 09:38 51.46990 -0.46955 95 ft 3 kts 261°
2026-05-06 09:39 51.46988 -0.46989 95 ft 0 kts 265°
2026-05-06 09:39 51.46988 -0.46994 94 ft 0 kts 265°